Regional Weather Roundup
Issued by NWS

Home | Current Version | Previous Version | Graphics & Text | Print | Product List | Glossary On
Versions: 1 2 3 4 5 6 7 8 9 10 11 12 13 14 15 16 17 18 19 20 21 22 23 24 25 26 27 28 29 30 31 32 33 34 35 36 37 38 39 40 41 42 43 44 45 46 47 48 49 50
000
ASUS45 KTFX 021504
RWRMT
MONTANA HOURLY WEATHER ROUNDUP
NATIONAL WEATHER SERVICE GREAT FALLS MT
904 AM MDT THU OCT 2 2014

NOTE: "FAIR" INDICATES FEW OR NO CLOUDS BELOW 12000 FEET WITH NO
SIGNIFICANT WEATHER AND/OR OBSTRUCTIONS TO VISIBILITY.

* THESE STATIONS ARE NOT UNDER NWS QUALITY CONTROL. THEY DO NOT
   REPORT WEATHER SUCH AS PRECIPITATION OR FOG.

MTZ001>007-043-021600-
WEST OF THE DIVIDE
CITY           SKY/WX    TMP DP  RH WIND       PRES   REMARKS
KALISPELL      SUNNY     43  30  60 NE14      30.12R
MISSOULA       CLOUDY    46  39  77 NW3       30.13R
BUTTE          PTCLDY    36  28  73 N3        30.11R
MULLAN PASS    CLOUDY    34  32  92 VRB3      30.15R
* ESSEX        N/A       33  31  92 SE5        N/A   WCI  28
* LINCOLN      N/A       42  31  65 S2G11      N/A
* LOOKOUT PASS N/A       39  34  82 N3         N/A
* POLSON       N/A       43  34  71 W2         N/A
* RONAN APT    PTSUNNY   48  34  59 W6         N/A
* SEELEY LAKE  N/A       39  35  86 NE2        N/A
* THOMP F APT  PTSUNNY   32  27  82 NE2        N/A
* YAAK HILL    N/A       40  35  82 NW1        N/A
$$

MTZ008-052>055-021600-
SOUTHWEST MONTANA
CITY           SKY/WX    TMP DP  RH WIND       PRES   REMARKS
BOZEMAN        PTSUNNY   43  34  71 N3        30.09R
DILLON         PTSUNNY   37  28  70 S8        30.11S WCI  31
W YELLOWSTONE  CLOUDY    36  28  73 SW16G23   30.18R WCI  26
* THREE FORKS  PTCLDY    34  18  52 N/A        N/A
* BOULDER HILL N/A       40  23  51 S2         N/A
* MONIDA PASS  N/A       32  31  96 SE12       N/A   WCI  23
* RAYNOLDS PAS N/A       32  15  49 SE22       N/A   WCI  19
* WHITEHALL    N/A       35  26  70 N7G13      N/A   WCI  29
* WISE RIVER   N/A       40  26  57 W10G15     N/A   WCI  34
$$

MTZ009>010-012-014-046-048-049-054-021600-
EAST SLOPES AND CENTRAL MONTANA
CITY           SKY/WX    TMP DP  RH WIND       PRES   REMARKS
CUT BANK       LGT SNOW  34  30  85 N20       30.18R VSB 3    WCI  23
GREAT FALLS    SNOW      32  32 100 NW9       30.15R VSB 1/2  WCI  24
HELENA         PTSUNNY   41  30  65 N10       30.12R
MALMSTROM AFB  LGT SNOW  34  34 100 NW12      30.18R VSB 3    WCI  25
* CONRAD       CLOUDY    34  34 100 W10G15     N/A   WCI  26
* DEARBORN     N/A       35  33  92 N/A        N/A
* EAST GLACIER N/A       29  25  85 NE10       N/A   WCI  20
* MONARCH      N/A       29  26  89 NW12       N/A   WCI  19
* PENDROY      N/A       30  30 100 N14G21     N/A   WCI  19
* ROGERS PASS  N/A       29  28  96 S4         N/A
* SAINT MARY   N/A       29  28  96 E4         N/A
* SWEET GRASS  N/A       31  30  96 N22G28     N/A   WCI  18
$$

MTZ011-013-016-021-035-040-045-047-050-051-021600-
NORTH CENTRAL MONTANA
CITY           SKY/WX    TMP DP  RH WIND       PRES   REMARKS
HAVRE          LGT RAIN  37  34  89 NW12      30.11R WCI  29
LEWISTOWN      CLOUDY    36  34  92 NW17G25   30.05R WCI  26
* CHESTER      N/A       35  30  82 N15G24     N/A   WCI  25
* DENTON       N/A       33  32  96 NW14G19    N/A   WCI  23
* JUDITH GAP   N/A       33  33 100 N21G26     N/A   WCI  21
* LOMA         N/A       35  34  96 W11G17     N/A   WCI  27
$$

MTZ017>020-022>027-061-062-021600-
NORTHEAST MONTANA
CITY           SKY/WX    TMP DP  RH WIND       PRES   REMARKS
GLASGOW        LGT RAIN  41  36  82 NW22      29.96R
GLENDIVE       SUNNY     48  36  63 W16G22    29.91R
JORDAN         PTSUNNY   43  36  76 NW15      29.98R
SIDNEY         PTCLDY    48  37  66 W23G30    29.87R
* BEAVER HILL  N/A       46  35  66 SW16G24    N/A
* CIRCLE       N/A       43  39  86 NW14       N/A
* LINDSAY DVD  N/A       43  35  73 W22G28     N/A
* NAVAJO       N/A       41  36  82 NW23G34    N/A
$$

MTZ028>042-056>058-021600-
SOUTHCENTRAL AND SOUTHEAST MONTANA
CITY           SKY/WX    TMP DP  RH WIND       PRES   REMARKS
BAKER          PTCLDY    48  36  63 W16       29.92S
BILLINGS       PTSUNNY   45  36  71 SW17      29.99S
LIVINGSTON     CLOUDY    48  27  44 W13       30.04R
MILES CITY     SUNNY     48  32  54 W7        29.94S
* LAUREL APT   PTCLDY    41  30  65 SW8        N/A
* ROUNDUP APT  PTCLDY    43  28  56 N/A        N/A
* ALZADA       N/A       44  39  83 SW8        N/A
* HYSHAM       N/A       46  27  48 W4         N/A
* LAME DEER    N/A       44  29  56 W11G16     N/A
* REED POINT   N/A       44  32  63 NW1        N/A
* ROSCOE HILL  N/A       43  21  42 E7         N/A
$$

REGIONAL REPORTS...DAKOTAS
CITY           SKY/WX    TMP DP  RH WIND       PRES   REMARKS
WILLISTON      PTCLDY    46  39  77 W10       29.82S
DICKINSON      CLOUDY    46  37  71 W16       29.85S
BEACH          N/A       46  37  71 W20       29.88F
CROSBY         SUNNY     46  41  83 W24G33    29.80R
TIOGA          CLOUDY    46  45  96 W16       29.82S
WATFORD CITY   PTCLDY    45  41  86 SW13      29.81F
BISMARCK       SUNNY     52  45  77 SW7       29.88F
GRAND FORKS    CLOUDY    54  48  80 W6        29.81S
FARGO          PTSUNNY   54  48  80 SW3       29.84S
BUFFALO SD     PTCLDY    46  39  77 W9        29.88S
RAPID CITY     SUNNY     52  39  61 W3        29.99F
$$

REGIONAL REPORTS...WYOMING/IDAHO/WASHINGTON
CITY           SKY/WX    TMP DP  RH WIND       PRES   REMARKS
GILLETTE       SUNNY     45  36  71 N10G20    30.02R
SHERIDAN       PTCLDY    43  34  71 CALM      30.02S
CODY           PTCLDY    48  27  44 W8G21     30.03S
YELLOWSTONE LA CLOUDY    32  27  82 W8G18     30.18S WCI  25
SALMON         PTCLDY    34  32  92 NE3       30.20R
MULLAN PASS    CLOUDY    34  32  92 VRB3      30.15S
SAND POINT     PTCLDY    36  36 100 W3        30.17R
SPOKANE        PTCLDY    45  30  56 S3        30.20R

$$



USA.gov is the U.S. government's official web portal to all federal, state and local government web resources and services.